Location: Lancaster
(34.6980°N, 118.1360°W)
Time: 06:37:03
(UTC-08:00)

Tiangong 1 - Pass Details

Date: 13 November 2017
Orbit: 284 x 308 km, 42.8° (Epoch: 23 November)

Event Time Altitude Azimuth Distance (km) Brightness Sun altitude
Exits shadow 04:57:10 62° 91° (E) 329 0.9 -18.2°
Drops below altitude 10° 04:59:23 10° 114° (ESE) 1,135 4.6 -17.7°
Sets 05:01:20 0° 116° (ESE) 1,958 6.1 -17.3°
